Weather History for KLEW - November, 2012

Change the Weather History Date:

Thursday, November 8, 2012

  Actual Average Record
Temperature  
Mean Temperature 34 °F -  
Max Temperature 37 °F 44 °F 64 °F (2011)
Min Temperature 30 °F 29 °F 21 °F (2002)
Degree Days  
Heating Degree Days 32    
Moisture  
Dew Point 32 °F    
Average Humidity 88    
Maximum Humidity 93    
Minimum Humidity 81    
Precipitation  
Precipitation 0.00 in - - ()
Sea Level Pressure  
Sea Level Pressure 29.78 in    
Wind  
Wind Speed 17 mph (North)    
Max Wind Speed 23 mph    
Max Gust Speed 31 mph    
Visibility 7 miles    
Events      
Averages and records for this station are not official NWS values.
T = Trace of Precipitation, MM = Missing Value Source: NWS Daily Summary

Daily Weather History Graph

Daily Weather History Graph

Search for Another Location

Airport or City:

Trip Planner

Search our weather history database for the weather conditions in past years. The results will help you decide how hot, cold, wet, or windy it might be!

Date:

Astronomy

Nov. 08, 2012 Rise Set
Actual Time 6:27 AM EST 4:21 PM EST
Civil Twilight 5:56 AM EST 4:52 PM EST
Nautical Twilight 5:22 AM EST 5:26 PM EST
Astronomical Twilight 4:48 AM EST 6:00 PM EST
Moon 12:07 AM EST (11/8) 1:11 PM EST (11/8)
Length of Visible Light 10h 55m
Length of Day
9h 54m
Waning Crescent, 33% of the Moon is Illuminated
Nov 8
Waning Crescent
Nov 13
New
Nov 20
First Quarter
Nov 28
Full
Dec 6
Last Quarter

Hourly Weather History & Observations

Time (EST) Temp. Windchill Dew Point Humidity Pressure Visibility Wind Dir Wind Speed Gust Speed Precip Events Conditions
12:15 AM 30.2 °F 18.5 °F 26.6 °F 86% 29.92 in 3.0 mi North 17.3 mph 21.9 mph N/A   Overcast
12:35 AM 30.2 °F 18.9 °F 28.4 °F 93% 29.91 in 1.8 mi North 16.1 mph 21.9 mph N/A   Overcast
12:55 AM 30.2 °F 18.5 °F 28.4 °F 93% 29.89 in 2.0 mi North 17.3 mph 26.5 mph N/A   Overcast
1:15 AM 30.2 °F 18.1 °F 28.4 °F 93% 29.89 in 2.0 mi North 18.4 mph 27.6 mph N/A   Overcast
1:35 AM 30.2 °F 17.4 °F 28.4 °F 93% 29.88 in 1.8 mi North 20.7 mph 27.6 mph N/A   Overcast
1:55 AM 30.2 °F 17.4 °F 28.4 °F 93% 29.87 in 2.5 mi North 20.7 mph 25.3 mph N/A   Overcast
2:15 AM 32.0 °F 21.2 °F 28.4 °F 87% 29.86 in 2.0 mi North 16.1 mph 24.2 mph N/A   Overcast
2:35 AM 32.0 °F 19.8 °F 28.4 °F 87% 29.85 in 2.0 mi North 20.7 mph 26.5 mph N/A   Overcast
2:55 AM 32.0 °F 20.1 °F 28.4 °F 87% 29.85 in 2.0 mi North 19.6 mph 24.2 mph N/A   Overcast
3:15 AM 32.0 °F 20.5 °F 28.4 °F 87% 29.84 in 2.5 mi NNE 18.4 mph 23.0 mph N/A   Overcast
3:35 AM 33.8 °F 23.2 °F 28.4 °F 81% 29.84 in 3.0 mi North 17.3 mph - N/A   Overcast
3:55 AM 33.8 °F 23.5 °F 30.2 °F 87% 29.83 in 4.0 mi NNE 16.1 mph 24.2 mph N/A   Overcast
4:15 AM 33.8 °F 23.5 °F 30.2 °F 87% 29.83 in 3.0 mi North 16.1 mph 25.3 mph N/A   Overcast
4:35 AM 33.8 °F 23.2 °F 30.2 °F 87% 29.83 in 4.0 mi North 17.3 mph 21.9 mph N/A   Overcast
4:55 AM 33.8 °F 22.8 °F 30.2 °F 87% 29.82 in 4.0 mi NNE 18.4 mph 25.3 mph N/A   Overcast
5:15 AM 33.8 °F 22.8 °F 30.2 °F 87% 29.81 in 4.0 mi North 18.4 mph 25.3 mph N/A   Overcast
5:35 AM 33.8 °F 23.5 °F 30.2 °F 87% 29.81 in 5.0 mi North 16.1 mph - N/A   Overcast
5:55 AM 33.8 °F 22.5 °F 30.2 °F 87% 29.80 in 6.0 mi NNE 19.6 mph 27.6 mph N/A   Overcast
6:16 AM 33.8 °F 23.2 °F 30.2 °F 87% 29.80 in 8.0 mi NNE 17.3 mph - N/A   Overcast
6:35 AM 33.8 °F 23.2 °F 30.2 °F 87% 29.80 in 8.0 mi North 17.3 mph 25.3 mph N/A   Overcast
6:55 AM 33.8 °F 23.2 °F 30.2 °F 87% 29.80 in 5.0 mi North 17.3 mph 24.2 mph N/A   Overcast
7:15 AM 33.8 °F 23.5 °F 30.2 °F 87% 29.81 in 5.0 mi NNE 16.1 mph 23.0 mph N/A   Overcast
7:55 AM 33.8 °F 23.2 °F 30.2 °F 87% 29.80 in 5.0 mi North 17.3 mph 26.5 mph N/A   Overcast
8:15 AM 33.8 °F 23.2 °F 30.2 °F 87% 29.79 in 3.0 mi North 17.3 mph 25.3 mph N/A   Overcast
8:35 AM 33.8 °F 22.8 °F 32.0 °F 93% 29.79 in 2.5 mi NNE 18.4 mph 23.0 mph N/A   Overcast
8:55 AM 33.8 °F 22.8 °F 30.2 °F 87% 29.79 in 4.0 mi North 18.4 mph 24.2 mph N/A   Overcast
9:15 AM 33.8 °F 22.5 °F 30.2 °F 87% 29.79 in 5.0 mi North 19.6 mph 23.0 mph N/A   Overcast
9:35 AM 35.6 °F 25.2 °F 30.2 °F 81% 29.79 in 7.0 mi NNE 18.4 mph 25.3 mph N/A   Overcast
9:55 AM 35.6 °F 24.0 °F 32.0 °F 87% 29.77 in 3.0 mi North 23.0 mph 28.8 mph N/A   Overcast
10:15 AM 35.6 °F 24.2 °F 32.0 °F 87% 29.77 in 3.0 mi North 21.9 mph 31.1 mph N/A   Overcast
10:35 AM 35.6 °F 24.5 °F 32.0 °F 87% 29.76 in 7.0 mi North 20.7 mph 29.9 mph N/A   Overcast
10:55 AM 35.6 °F 25.5 °F 32.0 °F 87% 29.76 in 10.0 mi North 17.3 mph 28.8 mph N/A   Overcast
11:35 AM 35.6 °F 24.8 °F 32.0 °F 87% 29.75 in 7.0 mi North 19.6 mph 26.5 mph N/A   Overcast
11:55 AM 35.6 °F 25.9 °F 32.0 °F 87% 29.75 in 3.0 mi North 16.1 mph 24.2 mph N/A   Overcast
12:15 PM 35.6 °F 24.2 °F 33.8 °F 93% 29.74 in 5.0 mi North 21.9 mph 25.3 mph N/A   Overcast
12:35 PM 35.6 °F 24.8 °F 33.8 °F 93% 29.74 in 8.0 mi North 19.6 mph 25.3 mph N/A   Overcast
1:15 PM 35.6 °F 25.2 °F 33.8 °F 93% 29.72 in 2.0 mi North 18.4 mph 26.5 mph N/A   Overcast
1:35 PM 35.6 °F 25.5 °F 33.8 °F 93% 29.73 in 3.0 mi North 17.3 mph - N/A   Overcast
1:55 PM 35.6 °F 25.5 °F 33.8 °F 93% 29.73 in 3.0 mi North 17.3 mph 24.2 mph N/A   Overcast
2:15 PM 37.4 °F 26.9 °F 33.8 °F 87% 29.73 in 7.0 mi North 20.7 mph 26.5 mph N/A   Overcast
2:35 PM 37.4 °F 27.5 °F 33.8 °F 87% 29.73 in 10.0 mi North 18.4 mph 23.0 mph N/A   Overcast
2:55 PM 37.4 °F 27.2 °F 33.8 °F 87% 29.73 in 5.0 mi North 19.6 mph 28.8 mph N/A   Overcast
3:15 PM 37.4 °F 28.5 °F 33.8 °F 87% 29.73 in 10.0 mi North 15.0 mph 24.2 mph N/A   Overcast
3:35 PM 37.4 °F 27.8 °F 33.8 °F 87% 29.74 in 10.0 mi North 17.3 mph 21.9 mph N/A   Overcast
3:55 PM 37.4 °F 27.5 °F 33.8 °F 87% 29.75 in 10.0 mi North 18.4 mph 24.2 mph N/A   Overcast
4:15 PM 37.4 °F 27.8 °F 33.8 °F 87% 29.75 in 9.0 mi North 17.3 mph 21.9 mph N/A   Overcast
4:35 PM 35.6 °F 25.5 °F 33.8 °F 93% 29.74 in 10.0 mi North 17.3 mph 28.8 mph N/A   Overcast
4:55 PM 37.4 °F 28.5 °F 33.8 °F 87% 29.75 in 10.0 mi North 15.0 mph 23.0 mph N/A   Overcast
5:15 PM 37.4 °F 28.2 °F 33.8 °F 87% 29.75 in 10.0 mi North 16.1 mph 21.9 mph N/A   Overcast
5:35 PM 37.4 °F 28.9 °F 33.8 °F 87% 29.75 in 10.0 mi North 13.8 mph 20.7 mph N/A   Overcast
5:55 PM 37.4 °F 27.8 °F 33.8 °F 87% 29.76 in 10.0 mi North 17.3 mph 25.3 mph N/A   Overcast
6:15 PM 37.4 °F 27.5 °F 33.8 °F 87% 29.76 in 10.0 mi North 18.4 mph 26.5 mph N/A   Overcast
6:36 PM 37.4 °F 28.2 °F 33.8 °F 87% 29.76 in 10.0 mi North 16.1 mph 21.9 mph N/A   Overcast
6:55 PM 37.4 °F 29.8 °F 33.8 °F 87% 29.76 in 10.0 mi North 11.5 mph - N/A   Overcast
7:15 PM 37.4 °F 28.9 °F 33.8 °F 87% 29.75 in 10.0 mi North 13.8 mph 19.6 mph N/A   Overcast
7:35 PM 37.4 °F 29.3 °F 33.8 °F 87% 29.75 in 10.0 mi NNW 12.7 mph 18.4 mph N/A   Overcast
7:55 PM 37.4 °F 28.9 °F 33.8 °F 87% 29.75 in 10.0 mi North 13.8 mph 20.7 mph N/A   Overcast
8:15 PM 37.4 °F 28.9 °F 33.8 °F 87% 29.75 in 10.0 mi North 13.8 mph 18.4 mph N/A   Overcast
8:35 PM 35.6 °F 26.2 °F 33.8 °F 93% 29.75 in 10.0 mi North 15.0 mph 19.6 mph N/A   Overcast
8:55 PM 35.6 °F 27.5 °F 32.0 °F 87% 29.75 in 10.0 mi North 11.5 mph 20.7 mph N/A   Overcast
9:15 PM 35.6 °F 26.2 °F 33.8 °F 93% 29.75 in 10.0 mi North 15.0 mph - N/A   Overcast
9:35 PM 35.6 °F 27.1 °F 33.8 °F 93% 29.75 in 10.0 mi North 12.7 mph - N/A   Overcast
9:55 PM 37.4 °F 29.8 °F 33.8 °F 87% 29.75 in 10.0 mi North 11.5 mph - N/A   Overcast
10:15 PM 37.4 °F 28.9 °F 33.8 °F 87% 29.75 in 10.0 mi North 13.8 mph - N/A   Overcast
10:35 PM 37.4 °F 29.8 °F 33.8 °F 87% 29.75 in 10.0 mi North 11.5 mph - N/A   Overcast
10:55 PM 37.4 °F 29.8 °F 33.8 °F 87% 29.75 in 10.0 mi North 11.5 mph 18.4 mph N/A   Overcast
11:15 PM 37.4 °F 29.8 °F 32.0 °F 81% 29.74 in 10.0 mi NNW 11.5 mph - N/A   Overcast
11:35 PM 37.4 °F 29.3 °F 33.8 °F 87% 29.75 in 10.0 mi North 12.7 mph - N/A   Overcast
11:55 PM 37.4 °F 30.3 °F 32.0 °F 81% 29.74 in 10.0 mi North 10.4 mph - N/A   Overcast